Regional Weather Roundup
Issued by NWS State College, PA

Home | Current Version | Previous Version | Text Only | Print | Product List | Glossary Off
Versions: 1 2 3 4 5 6 7 8 9 10 11 12 13 14 15 16 17 18 19 20 21 22 23 24 25 26 27 28 29 30 31 32 33 34 35 36 37 38 39 40 41 42 43 44 45 46 47 48 49 50

000
ASUS41 KCTP 281710
RWRCTP

REGIONAL WEATHER ROUNDUP
NATIONAL WEATHER SERVICE STATE COLLEGE PA
100 PM EDT THU APR 28 2016

Note: "fair" indicates few or no clouds below 12,000 feet with no
significant weather and/or obstructions to visibility.

* = STATION THAT DOES NOT REPORT PRECIPITATION /E.G. RAIN...SNOW...ETC/
    THUNDER OR FOG.

PAZ002>004-007>009-013>016-020>023-029>032-281800-
WESTERN PENNSYLVANIA

CITY           SKY/WX    TMP DP  RH WIND       PRES   REMARKS
ERIE           CLOUDY    47  33  58 NE15      29.97S
MEADVILLE      LGT RAIN  45  40  82 E8        29.94S
FRANKLIN*      CLOUDY    43  37  81 E12       29.97S
NEW CASTLE     LGT RAIN  45  43  93 E9        29.92F
BEAVER COUNTY  LGT RAIN  45  43  93 E5        29.90F
BUTLER*        CLOUDY    45  39  81 E14G20    29.94S
PITTSBURGH INT CLOUDY    51  47  86 NE9       29.88F FOG
PITTSBURGH     CLOUDY    54  52  93 NE5       29.87F FOG
INDIANA*       CLOUDY    45  43  93 E12       29.96S FOG
LATROBE        NOT AVBL
WASHINGTON CO* CLOUDY    54  52  94 NE3       29.88S
$$

PAZ004>006-010>012-017>019-024>028-033>037-041-042-045-046-049>053-281800-
CENTRAL PENNSYLVANIA

CITY           SKY/WX    TMP DP  RH WIND       PRES   REMARKS
BRADFORD       LGT RAIN  47  19  33 E10       29.98R
DUBOIS         LGT RAIN  39  35  86 E10       29.96F FOG
CLEARFIELD     RAIN      40  34  79 NE8       30.01S
JOHNSTOWN      RAIN      45  40  82 E6        29.93S
ALTOONA        RAIN      41  38  89 NE7       29.99F FOG
STATE COLLEGE  RAIN      45  28  53 NE6       30.02R
WILLIAMSPORT   LGT RAIN  52  26  36 E3        30.02S
SELINSGROVE    LGT RAIN  52  31  44 CALM      30.03S
FT INDIANTOWN  LGT RAIN  48  34  57 E2        30.04S
CAPITAL CITY   LGT RAIN  49  38  65 E5        30.05R
HARRISBURG     LGT RAIN  48  36  63 E6        30.04R
YORK           LGT RAIN  46  42  86 N6        30.02S FOG
$$

PAZ038>040-043-044-047-048-054-055-060>062-067>071-281800-
EASTERN PENNSYLVANIA

CITY           SKY/WX    TMP DP  RH WIND       PRES   REMARKS
SCRANTON       CLOUDY    54  18  24 N8        30.01F
MOUNT POCONO   CLOUDY    53  19  26 S9        30.00F
ALLENTOWN      CLOUDY    57  27  31 E6        30.02F
QUAKERTOWN*    CLOUDY    54  28  37 SE8       30.04S
READING        LGT RAIN  54  26  34 CALM      30.03R
LANCASTER      LGT RAIN  50  39  66 E8        30.02F
COATESVILLE    LGT RAIN  48  46  93 CALM      30.05R
POTTSTOWN      CLOUDY    53  30  41 E7        30.05S
BLUE BELL      CLOUDY    54  32  43 E3        30.03S
DOYLESTOWN     CLOUDY    53  25  33 VRB3      30.03S
WILLOW GROVE   NOT AVBL
NORTH PHILA    CLOUDY    56  28  34 E8        30.05F
PHILADELPHIA   LGT RAIN  56  33  42 E8        30.05R
$$




USA.gov is the U.S. government's official web portal to all federal, state and local government web resources and services.